| time (UTC) | temp F | wind direction | speed MPH | gust MPH | rain 1hr in | rain 24hr in | rain mn in | humidity % | barometer mb |
| 20260508030008 | 61 | 26 | 9.0 | 19.0 | 0.00 | 0.02 | 0.02 | 81 | 1012.3 |
| 20260508024508 | 61 | 23 | 2.0 | 4.0 | 0.00 | 0.02 | 0.02 | 83 | 1014.0 |
| 20260508023017 | 61 | 23 | 1.0 | 6.0 | 0.00 | 0.02 | 0.02 | 84 | 1014.5 |
| 20260508021506 | 61 | 19 | 3.0 | 6.0 | 0.00 | 0.02 | 0.02 | 84 | 1014.4 |
| 20260508020007 | 61 | 325 | 3.0 | 4.0 | 0.00 | 0.02 | 0.02 | 85 | 1014.3 |
| 20260508014512 | 61 | 325 | 1.0 | 3.0 | 0.00 | 0.02 | 0.02 | 84 | 1014.6 |
| 20260508013004 | 61 | 325 | 0.0 | 2.0 | 0.00 | 0.02 | 0.02 | 84 | 1014.5 |
| 20260508011503 | 61 | 325 | 0.0 | 4.0 | 0.00 | 0.02 | 0.02 | 83 | 1014.2 |
| 20260508010003 | 60 | 350 | 2.0 | 5.0 | 0.00 | 0.02 | 0.02 | 83 | 1013.8 |
| 20260508004508 | 60 | 349 | 2.0 | 10.0 | 0.00 | 0.02 | 0.02 | 83 | 1013.4 |
| 20260508003006 | 60 | 34 | 1.0 | 5.0 | 0.00 | 0.02 | 0.02 | 84 | 1013.9 |
| 20260508001501 | 60 | 21 | 1.0 | 5.0 | 0.00 | 0.02 | 0.02 | 85 | 1013.8 |
| 20260507234602 | 60 | 30 | 2.0 | 10.0 | 0.01 | 0.02 | 0.02 | 85 | 1012.9 |
| 20260507233059 | 60 | 90 | 5.0 | 15.0 | 0.02 | 0.02 | 0.02 | 85 | 1012.8 |
| 20260507231600 | 60 | 5 | 2.0 | 17.0 | 0.02 | 0.02 | 0.02 | 85 | 1012.5 |
| 20260507230059 | 60 | 252 | 6.0 | 20.0 | 0.02 | 0.02 | 0.02 | 85 | 1013.4 |
| 20260507224614 | 62 | 343 | 2.0 | 8.0 | 0.01 | 0.01 | 0.01 | 81 | 1014.3 |
| 20260507223059 | 63 | 279 | 5.0 | 12.0 | 0.00 | 0.00 | 0.00 | 76 | 1014.4 |
| 20260507221554 | 63 | 34 | 4.0 | 9.0 | 0.00 | 0.00 | 0.00 | 76 | 1014.4 |
| 20260507220053 | 63 | 37 | 4.0 | 11.0 | 0.00 | 0.00 | 0.00 | 76 | 1014.1 |
| 20260507214554 | 63 | 38 | 6.0 | 13.0 | 0.00 | 0.00 | 0.00 | 76 | 1014.0 |
| 20260507213052 | 63 | 38 | 3.0 | 9.0 | 0.00 | 0.00 | 0.00 | 76 | 1014.7 |
| 20260507211615 | 63 | 17 | 4.0 | 11.0 | 0.00 | 0.00 | 0.00 | 76 | 1015.2 |
| 20260507210053 | 63 | 24 | 4.0 | 11.0 | 0.00 | 0.00 | 0.00 | 77 | 1015.4 |
| 20260507204600 | 63 | 51 | 4.0 | 15.0 | 0.00 | 0.00 | 0.00 | 78 | 1015.1 |
| 20260507203048 | 63 | 5 | 4.0 | 11.0 | 0.00 | 0.00 | 0.00 | 79 | 1015.3 |
| 20260507201601 | 62 | 26 | 3.0 | 13.0 | 0.00 | 0.00 | 0.00 | 79 | 1015.6 |
| 20260507200059 | 62 | 16 | 8.0 | 15.0 | 0.00 | 0.00 | 0.00 | 79 | 1015.4 |
| 20260507194553 | 63 | 25 | 4.0 | 13.0 | 0.00 | 0.00 | 0.00 | 79 | 1015.4 |
| 20260507193044 | 63 | 40 | 4.0 | 11.0 | 0.00 | 0.00 | 0.00 | 79 | 1015.0 |
| 20260507191549 | 62 | 44 | 6.0 | 17.0 | 0.00 | 0.00 | 0.00 | 80 | 1015.1 |
| 20260507190042 | 62 | 46 | 7.0 | 15.0 | 0.00 | 0.00 | 0.00 | 79 | 1015.1 |
| 20260507184542 | 62 | 13 | 8.0 | 20.0 | 0.00 | 0.00 | 0.00 | 79 | 1015.6 |
| 20260507183039 | 61 | 14 | 8.0 | 18.0 | 0.00 | 0.00 | 0.00 | 80 | 1015.8 |
| 20260507181537 | 61 | 34 | 4.0 | 19.0 | 0.00 | 0.00 | 0.00 | 82 | 1016.1 |
| 20260507180043 | 61 | 30 | 8.0 | 15.0 | 0.00 | 0.00 | 0.00 | 82 | 1016.3 |
| 20260507174536 | 60 | 49 | 9.0 | 17.0 | 0.00 | 0.00 | 0.00 | 82 | 1015.4 |
| 20260507173036 | 60 | 39 | 9.0 | 16.0 | 0.00 | 0.00 | 0.00 | 82 | 1015.9 |
| 20260507171533 | 59 | 84 | 5.0 | 15.0 | 0.00 | 0.00 | 0.00 | 85 | 1015.8 |
| 20260507170033 | 58 | 5 | 7.0 | 17.0 | 0.00 | 0.00 | 0.00 | 85 | 1016.3 |
| 20260507164534 | 58 | 47 | 8.0 | 15.0 | 0.00 | 0.00 | 0.00 | 85 | 1016.3 |
| 20260507163030 | 58 | 74 | 6.0 | 12.0 | 0.00 | 0.00 | 0.00 | 85 | 1016.3 |
| 20260507161531 | 58 | 59 | 11.0 | 18.0 | 0.00 | 0.00 | 0.00 | 85 | 1016.4 |
| 20260507160034 | 58 | 64 | 10.0 | 21.0 | 0.00 | 0.00 | 0.00 | 85 | 1016.5 |
| 20260507154529 | 58 | 32 | 9.0 | 18.0 | 0.00 | 0.02 | 0.00 | 85 | 1016.4 |
| 20260507153032 | 58 | 61 | 11.0 | 18.0 | 0.00 | 0.02 | 0.00 | 85 | 1016.2 |
| 20260507151526 | 57 | 16 | 7.0 | 22.0 | 0.00 | 0.02 | 0.00 | 86 | 1015.9 |
| 20260507150025 | 57 | 345 | 8.0 | 21.0 | 0.00 | 0.02 | 0.00 | 86 | 1016.1 |
| 20260507144525 | 57 | 38 | 8.0 | 19.0 | 0.00 | 0.02 | 0.00 | 87 | 1015.8 |
| 20260507143026 | 57 | 23 | 12.0 | 20.0 | 0.00 | 0.02 | 0.00 | 87 | 1015.8 |
| 20260507141520 | 56 | 45 | 11.0 | 20.0 | 0.00 | 0.02 | 0.00 | 87 | 1015.8 |
| 20260507140026 | 56 | 315 | 9.0 | 17.0 | 0.00 | 0.02 | 0.00 | 87 | 1016.4 |
| 20260507134517 | 57 | 78 | 5.0 | 16.0 | 0.00 | 0.02 | 0.00 | 87 | 1016.1 |
| 20260507133015 | 57 | 28 | 9.0 | 22.0 | 0.00 | 0.02 | 0.00 | 87 | 1015.0 |
| 20260507131511 | 57 | 65 | 10.0 | 17.0 | 0.00 | 0.02 | 0.00 | 87 | 1015.1 |
| 20260507130009 | 57 | 71 | 11.0 | 17.0 | 0.00 | 0.02 | 0.00 | 86 | 1015.9 |
| 20260507124512 | 58 | 46 | 9.0 | 15.0 | 0.00 | 0.02 | 0.00 | 86 | 1015.5 |
| 20260507123003 | 58 | 5 | 7.0 | 18.0 | 0.00 | 0.02 | 0.00 | 86 | 1015.2 |
| 20260507121601 | 59 | 17 | 9.0 | 21.0 | 0.00 | 0.02 | 0.00 | 85 | 1015.0 |
| 20260507120058 | 59 | 5 | 5.0 | 16.0 | 0.00 | 0.02 | 0.00 | 85 | 1014.7 |
| 20260507114555 | 59 | 355 | 8.0 | 15.0 | 0.00 | 0.02 | 0.00 | 85 | 1014.3 |
| 20260507113053 | 59 | 31 | 8.0 | 18.0 | 0.00 | 0.02 | 0.00 | 85 | 1014.3 |
| 20260507111551 | 59 | 60 | 11.0 | 18.0 | 0.00 | 0.02 | 0.00 | 85 | 1014.2 |
| 20260507110057 | 60 | 65 | 7.0 | 12.0 | 0.00 | 0.02 | 0.00 | 86 | 1014.0 |
| 20260507104546 | 60 | 15 | 10.0 | 14.0 | 0.00 | 0.02 | 0.00 | 86 | 1013.6 |
| 20260507103043 | 60 | 24 | 9.0 | 18.0 | 0.00 | 0.02 | 0.00 | 86 | 1013.7 |
| 20260507101558 | 60 | 13 | 6.0 | 13.0 | 0.00 | 0.02 | 0.00 | 86 | 1013.3 |
| 20260507100042 | 61 | 30 | 7.0 | 14.0 | 0.00 | 0.02 | 0.00 | 86 | 1013.4 |
| 20260507094553 | 61 | 24 | 8.0 | 13.0 | 0.00 | 0.02 | 0.00 | 86 | 1013.3 |
| 20260507093039 | 61 | 55 | 5.0 | 10.0 | 0.00 | 0.02 | 0.00 | 86 | 1013.4 |
| 20260507091553 | 61 | 40 | 4.0 | 12.0 | 0.00 | 0.02 | 0.00 | 86 | 1013.3 |
| 20260507090048 | 61 | 30 | 5.0 | 13.0 | 0.00 | 0.02 | 0.00 | 86 | 1013.1 |
| 20260507084537 | 61 | 53 | 6.0 | 11.0 | 0.00 | 0.02 | 0.00 | 86 | 1013.2 |
| 20260507083036 | 61 | 17 | 3.0 | 9.0 | 0.00 | 0.02 | 0.00 | 86 | 1013.6 |
| 20260507081549 | 60 | 33 | 3.0 | 9.0 | 0.00 | 0.02 | 0.00 | 87 | 1013.3 |
| 20260507080034 | 60 | 36 | 5.0 | 10.0 | 0.00 | 0.02 | 0.00 | 87 | 1013.6 |
| 20260507074538 | 60 | 22 | 6.0 | 10.0 | 0.00 | 0.02 | 0.00 | 87 | 1013.7 |
| 20260507073040 | 60 | 33 | 1.0 | 8.0 | 0.00 | 0.02 | 0.00 | 87 | 1013.7 |
| 20260507071532 | 60 | 5 | 7.0 | 12.0 | 0.00 | 0.02 | 0.00 | 87 | 1013.6 |
| 20260507070030 | 60 | 15 | 5.0 | 10.0 | 0.00 | 0.02 | 0.00 | 87 | 1013.7 |
| 20260507064529 | 60 | 14 | 4.0 | 9.0 | 0.00 | 0.02 | 0.00 | 87 | 1013.6 |
| 20260507063027 | 60 | 34 | 2.0 | 10.0 | 0.00 | 0.02 | 0.00 | 87 | 1013.5 |
| 20260507061532 | 60 | 54 | 2.0 | 15.0 | 0.00 | 0.02 | 0.00 | 87 | 1013.3 |
| 20260507060030 | 60 | 25 | 9.0 | 17.0 | 0.00 | 0.02 | 0.00 | 87 | 1013.0 |
| 20260507054523 | 60 | 15 | 8.0 | 14.0 | 0.00 | 0.02 | 0.00 | 87 | 1013.2 |
| 20260507053018 | 60 | 32 | 5.0 | 12.0 | 0.00 | 0.02 | 0.00 | 87 | 1013.0 |
| 20260507051517 | 60 | 42 | 7.0 | 14.0 | 0.00 | 0.02 | 0.00 | 87 | 1012.4 |
| 20260507050027 | 60 | 16 | 6.0 | 11.0 | 0.00 | 0.02 | 0.00 | 87 | 1012.4 |
| 20260507044525 | 60 | 68 | 9.0 | 14.0 | 0.00 | 0.02 | 0.02 | 86 | 1011.7 |
| 20260507043007 | 60 | 48 | 3.0 | 11.0 | 0.00 | 0.02 | 0.02 | 86 | 1012.3 |
| 20260507041506 | 60 | 48 | 5.0 | 13.0 | 0.00 | 0.02 | 0.02 | 86 | 1012.1 |
| 20260507040004 | 60 | 63 | 4.0 | 10.0 | 0.00 | 0.02 | 0.02 | 86 | 1012.2 |
| 20260507034502 | 61 | 18 | 5.0 | 12.0 | 0.00 | 0.02 | 0.02 | 86 | 1012.4 |
| 20260507033102 | 61 | 71 | 5.0 | 13.0 | 0.00 | 0.02 | 0.02 | 86 | 1011.9 |
| 20260507031555 | 61 | 33 | 6.0 | 10.0 | 0.00 | 0.02 | 0.02 | 85 | 1011.8 |